sat.trackr.live / text

‹ back to catalog

STARLINK-31094

NORAD 58593 · 2023-200E

PAYLOAD ACTIVE UNKNOWN

§ Identity

Operator
Country
US
Launch date
2023-12-19
Launch site
AFETR
Launch vehicle
Mass (kg)
RCS (m²)

Purposes: comms

External: N2YO · Heavens-Above · Gunter

§ Orbital elements

Epoch: 2026-09-20T22:39:19.131552Z

Period
94.27 min
Inclination
43.0023°
Eccentricity
0.0001397
Mean motion
15.27576615 rev/d
Perigee alt
482.1 km
Apogee alt
484.0 km
Semi-major
6,861.2 km
B*
9.4729e-6
RAAN
146.0628°
Arg perigee
273.0221°
Mean anomaly
87.0471°
Rev number
15,347

§ Raw data

STARLINK-310941 58593U 23200E   26263.94397143 -.00000001  00000+0  94729-5 0  99932 58593  43.0023 146.0628 0001397 273.0221  87.0471 15.27576615153470

JSON: /api/v1/satellites/58593 · /tle

For live sub-satellite position, see the globe view (requires WebGL).

§ Visibility from observer

Set your observer location to see the next 7 days of passes ≥ 10°. The values pass through the URL so the page stays shareable.

No JS? Fill the form by hand. The geolocation button needs JavaScript.